DLH14E EDDF-LOWW

Flight info

Callsign DLH14E
Flight time 1h 22m
Altitude 31000
Route SULUS7S/18 SULUS Z650 VEMUT/N0417F290 DCT BUDEX BUDEX2W
Aircraft A320/M-SDE3FGHIRWY/LB1

Departure

Time 2026-05-04 20:02
Airport Frankfurt Main Airport (EDDF)

Arrival

Time 2026-05-04 21:25
Airport Vienna International Airport (LOWW)
Time Latitude Longitude Altitude Speed Heading
2026-05-04 19:22 50.04533 8.56587 362 ft 0 kts 115°
2026-05-04 19:50 50.04539 8.56563 363 ft 4 kts 115°
2026-05-04 19:51 50.04552 8.56526 363 ft 4 kts 119°
2026-05-04 19:51 50.04566 8.56491 364 ft 4 kts 132°
2026-05-04 19:51 50.04585 8.56468 361 ft 4 kts 181°
2026-05-04 19:51 50.04584 8.56463 360 ft 4 kts 205°
2026-05-04 19:52 50.04570 8.56454 360 ft 0 kts 205°
2026-05-04 19:54 50.04562 8.56448 363 ft 2 kts 205°
2026-05-04 19:55 50.04554 8.56443 360 ft 0 kts 203°
2026-05-04 19:55 50.04538 8.56429 358 ft 5 kts 212°
2026-05-04 19:55 50.04519 8.56390 359 ft 6 kts 244°
2026-05-04 19:56 50.04496 8.56301 360 ft 10 kts 249°
2026-05-04 19:56 50.04470 8.56192 363 ft 13 kts 250°
2026-05-04 19:56 50.04433 8.56052 360 ft 14 kts 232°
2026-05-04 19:56 50.04343 8.56056 358 ft 13 kts 160°
2026-05-04 19:57 50.04269 8.56043 357 ft 11 kts 226°
2026-05-04 19:57 50.04238 8.55935 359 ft 11 kts 249°
2026-05-04 19:57 50.04211 8.55819 357 ft 12 kts 250°
2026-05-04 19:57 50.04173 8.55660 352 ft 19 kts 250°
2026-05-04 19:58 50.04122 8.55451 358 ft 22 kts 249°
2026-05-04 19:58 50.04070 8.55230 355 ft 22 kts 249°
2026-05-04 19:58 50.04015 8.55000 355 ft 23 kts 250°
2026-05-04 19:58 50.03955 8.54752 353 ft 25 kts 249°
2026-05-04 19:59 50.03894 8.54492 354 ft 27 kts 250°
2026-05-04 19:59 50.03812 8.54255 348 ft 23 kts 241°
2026-05-04 19:59 50.03750 8.54012 352 ft 25 kts 249°
2026-05-04 19:59 50.03687 8.53748 350 ft 27 kts 249°
2026-05-04 20:00 50.03617 8.53472 338 ft 28 kts 249°
2026-05-04 20:00 50.03548 8.53180 335 ft 29 kts 249°
2026-05-04 20:00 50.03475 8.52885 334 ft 29 kts 248°
2026-05-04 20:00 50.03424 8.52685 334 ft 14 kts 248°
2026-05-04 20:01 50.03347 8.52596 335 ft 15 kts 187°
2026-05-04 20:01 50.03314 8.52594 335 ft 0 kts 180°
2026-05-04 20:01 50.03300 8.52594 332 ft 13 kts 180°
2026-05-04 20:02 50.02933 8.52597 335 ft 89 kts 179°
2026-05-04 20:02 50.02117 8.52602 335 ft 143 kts 180°
2026-05-04 20:02 50.01003 8.52572 566 ft 169 kts 183°
2026-05-04 20:02 49.99809 8.52536 1269 ft 172 kts 180°
2026-05-04 20:03 49.98560 8.52548 1694 ft 191 kts 179°
2026-05-04 20:03 49.97145 8.52613 1987 ft 216 kts 176°
2026-05-04 20:03 49.95696 8.53402 2517 ft 231 kts 138°
2026-05-04 20:03 49.94740 8.55417 3337 ft 234 kts 117°
2026-05-04 20:04 49.94072 8.57701 3852 ft 237 kts 112°
2026-05-04 20:04 49.93755 8.60233 4000 ft 241 kts 89°
2026-05-04 20:04 49.93903 8.62971 4027 ft 263 kts 87°
2026-05-04 20:04 49.93910 8.65828 4036 ft 266 kts 96°
2026-05-04 20:05 49.93433 8.68536 4034 ft 265 kts 117°
2026-05-04 20:05 49.92385 8.70868 4035 ft 264 kts 135°
2026-05-04 20:05 49.90918 8.72638 4424 ft 271 kts 146°
2026-05-04 20:05 49.89390 8.74316 5525 ft 268 kts 142°
2026-05-04 20:06 49.88110 8.76433 6491 ft 272 kts 127°
2026-05-04 20:06 49.87148 8.78985 7373 ft 276 kts 121°
2026-05-04 20:06 49.86216 8.81604 8230 ft 280 kts 122°
2026-05-04 20:06 49.85263 8.84264 9092 ft 283 kts 122°
2026-05-04 20:07 49.84294 8.86946 9943 ft 287 kts 122°
2026-05-04 20:07 49.83292 8.89703 10420 ft 305 kts 122°
2026-05-04 20:07 49.82210 8.92665 10698 ft 326 kts 122°
2026-05-04 20:07 49.81073 8.95782 10939 ft 335 kts 122°
2026-05-04 20:08 49.79930 8.98920 10979 ft 335 kts 122°
2026-05-04 20:08 49.78782 9.02067 10982 ft 335 kts 122°
2026-05-04 20:08 49.77642 9.05199 10984 ft 335 kts 122°
2026-05-04 20:08 49.76529 9.08382 10986 ft 336 kts 117°
2026-05-04 20:09 49.75777 9.11835 11162 ft 344 kts 105°
2026-05-04 20:09 49.75224 9.15440 12000 ft 345 kts 106°
2026-05-04 20:09 49.74651 9.19060 12772 ft 348 kts 107°
2026-05-04 20:09 49.74062 9.22709 13514 ft 352 kts 107°
2026-05-04 20:10 49.73459 9.26397 14188 ft 356 kts 107°
2026-05-04 20:10 49.72846 9.30121 14816 ft 360 kts 107°
2026-05-04 20:10 49.72228 9.33884 15464 ft 363 kts 107°
2026-05-04 20:10 49.71604 9.37698 16108 ft 367 kts 107°
2026-05-04 20:11 49.70976 9.41538 16745 ft 370 kts 107°
2026-05-04 20:11 49.70342 9.45409 17369 ft 374 kts 107°
2026-05-04 20:11 49.69699 9.49323 17997 ft 377 kts 107°
2026-05-04 20:11 49.69058 9.53274 18552 ft 381 kts 104°
2026-05-04 20:12 49.68873 9.57343 19049 ft 390 kts 88°
2026-05-04 20:12 49.69087 9.61533 19567 ft 393 kts 88°
2026-05-04 20:12 49.69319 9.65805 20086 ft 397 kts 87°
2026-05-04 20:12 49.69554 9.70026 20602 ft 401 kts 87°
2026-05-04 20:13 49.69799 9.74393 21089 ft 405 kts 87°
2026-05-04 20:13 49.70035 9.78683 21565 ft 408 kts 88°
2026-05-04 20:13 49.70270 9.83081 22049 ft 412 kts 88°
2026-05-04 20:13 49.70501 9.87505 22533 ft 415 kts 88°
2026-05-04 20:14 49.70730 9.91974 23002 ft 419 kts 88°
2026-05-04 20:14 49.70957 9.96480 23447 ft 422 kts 88°
2026-05-04 20:14 49.71186 10.01009 23875 ft 425 kts 88°
2026-05-04 20:14 49.71417 10.05575 24286 ft 427 kts 88°
2026-05-04 20:15 49.71648 10.10157 24683 ft 429 kts 88°
2026-05-04 20:15 49.71881 10.14783 25069 ft 432 kts 88°
2026-05-04 20:15 49.72113 10.19413 25446 ft 434 kts 88°
2026-05-04 20:15 49.72342 10.24084 25829 ft 437 kts 88°
2026-05-04 20:16 49.72571 10.28787 26206 ft 439 kts 88°
2026-05-04 20:16 49.72800 10.33515 26588 ft 442 kts 88°
2026-05-04 20:16 49.73028 10.38254 26955 ft 444 kts 88°
2026-05-04 20:16 49.73256 10.43027 27276 ft 447 kts 88°
2026-05-04 20:17 49.73484 10.47841 27621 ft 450 kts 88°
2026-05-04 20:17 49.73709 10.52683 27978 ft 453 kts 88°
2026-05-04 20:17 49.73934 10.57555 28311 ft 455 kts 88°
2026-05-04 20:17 49.74161 10.62455 28659 ft 458 kts 88°
2026-05-04 20:18 49.74385 10.67377 29002 ft 460 kts 88°
2026-05-04 20:18 49.74607 10.72316 29329 ft 463 kts 88°
2026-05-04 20:18 49.74830 10.77294 29654 ft 465 kts 89°
2026-05-04 20:18 49.75050 10.82302 29971 ft 467 kts 89°
2026-05-04 20:19 49.75268 10.87323 30243 ft 469 kts 89°
2026-05-04 20:19 49.75486 10.92374 30496 ft 471 kts 88°
2026-05-04 20:19 49.75702 10.97430 30797 ft 472 kts 88°
2026-05-04 20:19 49.75917 11.02490 30928 ft 470 kts 88°
2026-05-04 20:20 49.76128 11.07457 30950 ft 454 kts 88°
2026-05-04 20:20 49.76532 11.17078 30950 ft 445 kts 89°
2026-05-04 20:21 49.76913 11.26609 30954 ft 444 kts 89°
2026-05-04 20:21 49.77473 11.40921 30957 ft 443 kts 88°
2026-05-04 20:22 49.77837 11.50444 30966 ft 443 kts 89°
2026-05-04 20:22 49.78194 11.59892 30977 ft 442 kts 89°
2026-05-04 20:23 49.78543 11.69388 30976 ft 442 kts 89°
2026-05-04 20:23 49.78881 11.78878 30985 ft 442 kts 89°
2026-05-04 20:24 49.79212 11.88370 30982 ft 442 kts 89°
2026-05-04 20:24 49.79538 11.97852 30997 ft 441 kts 89°
2026-05-04 20:25 49.79860 12.07327 30995 ft 441 kts 89°
2026-05-04 20:25 49.80173 12.16803 30984 ft 441 kts 89°
2026-05-04 20:26 49.80475 12.26290 30945 ft 441 kts 89°
2026-05-04 20:26 49.80761 12.35765 30942 ft 441 kts 89°
2026-05-04 20:27 49.80210 12.45122 30943 ft 436 kts 107°
2026-05-04 20:27 49.77760 12.53578 30942 ft 429 kts 127°
2026-05-04 20:28 49.74367 12.61156 30942 ft 429 kts 127°
2026-05-04 20:28 49.71003 12.68680 30929 ft 429 kts 127°
2026-05-04 20:29 49.67618 12.76253 30931 ft 428 kts 127°
2026-05-04 20:29 49.64226 12.83811 30937 ft 428 kts 127°
2026-05-04 20:30 49.61398 12.90082 30941 ft 428 kts 127°
2026-05-04 20:30 49.57993 12.97599 30939 ft 428 kts 127°
2026-05-04 20:31 49.54581 13.05115 30942 ft 428 kts 127°
2026-05-04 20:31 49.51162 13.12695 30946 ft 430 kts 127°
2026-05-04 20:32 49.47737 13.20203 30944 ft 428 kts 128°
2026-05-04 20:32 49.44300 13.27682 30960 ft 428 kts 128°
2026-05-04 20:33 49.42597 13.31425 31075 ft 421 kts 122°
2026-05-04 20:33 49.41083 13.35294 30993 ft 428 kts 124°
2026-05-04 20:33 49.37684 13.42733 30922 ft 425 kts 129°
2026-05-04 20:34 49.34112 13.49968 30918 ft 426 kts 130°
2026-05-04 20:34 49.30627 13.57273 30920 ft 427 kts 128°
2026-05-04 20:35 49.27196 13.64689 30920 ft 427 kts 128°
2026-05-04 20:35 49.23775 13.72119 30920 ft 427 kts 128°
2026-05-04 20:36 49.20337 13.79518 30917 ft 426 kts 128°
2026-05-04 20:36 49.16888 13.86896 30914 ft 427 kts 128°
2026-05-04 20:37 49.13429 13.94284 30913 ft 427 kts 128°
2026-05-04 20:37 49.09964 14.01649 30907 ft 426 kts 128°
2026-05-04 20:38 49.06507 14.08974 30913 ft 425 kts 128°
2026-05-04 20:38 49.03045 14.16287 30908 ft 425 kts 129°
2026-05-04 20:39 49.01319 14.19929 30796 ft 423 kts 129°
2026-05-04 20:39 48.99609 14.23543 30532 ft 419 kts 128°
2026-05-04 20:39 48.97912 14.27119 30287 ft 417 kts 128°
2026-05-04 20:39 48.96215 14.30695 30044 ft 415 kts 128°
2026-05-04 20:40 48.94525 14.34250 29768 ft 413 kts 128°
2026-05-04 20:40 48.92818 14.37750 29476 ft 411 kts 129°
2026-05-04 20:40 48.91086 14.41199 29193 ft 409 kts 130°
2026-05-04 20:40 48.89346 14.44609 28916 ft 408 kts 130°
2026-05-04 20:41 48.87607 14.47997 28640 ft 406 kts 130°
2026-05-04 20:41 48.85875 14.51382 28357 ft 404 kts 130°
2026-05-04 20:41 48.84158 14.54752 28094 ft 403 kts 130°
2026-05-04 20:41 48.82450 14.58116 27824 ft 402 kts 129°
2026-05-04 20:42 48.80749 14.61470 27551 ft 401 kts 129°
2026-05-04 20:42 48.79052 14.64810 27288 ft 399 kts 129°
2026-05-04 20:42 48.77364 14.68128 27031 ft 396 kts 129°
2026-05-04 20:42 48.75693 14.71405 26673 ft 390 kts 129°
2026-05-04 20:43 48.74065 14.74594 26227 ft 386 kts 129°
2026-05-04 20:43 48.72407 14.77834 25800 ft 382 kts 129°
2026-05-04 20:43 48.70789 14.80993 25355 ft 379 kts 129°
2026-05-04 20:43 48.69194 14.84100 24924 ft 376 kts 129°
2026-05-04 20:44 48.67595 14.87218 24463 ft 374 kts 129°
2026-05-04 20:44 48.66013 14.90302 24027 ft 373 kts 129°
2026-05-04 20:44 48.64424 14.93396 23552 ft 372 kts 129°
2026-05-04 20:44 48.62842 14.96469 23033 ft 370 kts 129°
2026-05-04 20:45 48.61263 14.99532 22580 ft 367 kts 129°
2026-05-04 20:45 48.59760 15.02639 22097 ft 366 kts 122°
2026-05-04 20:45 48.58648 15.06064 21639 ft 366 kts 111°
2026-05-04 20:45 48.57937 15.09764 21179 ft 365 kts 105°
2026-05-04 20:46 48.57305 15.13463 20716 ft 363 kts 106°
2026-05-04 20:46 48.56670 15.17150 20254 ft 362 kts 106°
2026-05-04 20:46 48.56035 15.20824 19796 ft 361 kts 106°
2026-05-04 20:46 48.55399 15.24488 19340 ft 360 kts 106°
2026-05-04 20:47 48.54764 15.28143 18885 ft 359 kts 106°
2026-05-04 20:47 48.54132 15.31784 18421 ft 359 kts 106°
2026-05-04 20:47 48.53497 15.35420 17949 ft 358 kts 106°
2026-05-04 20:47 48.52863 15.39034 17491 ft 355 kts 107°
2026-05-04 20:48 48.52237 15.42616 17051 ft 353 kts 105°
2026-05-04 20:48 48.51876 15.46262 16705 ft 349 kts 96°
2026-05-04 20:48 48.51689 15.49873 16502 ft 343 kts 96°
2026-05-04 20:48 48.51496 15.53449 16256 ft 341 kts 96°
2026-05-04 20:49 48.51296 15.56995 16008 ft 339 kts 97°
2026-05-04 20:49 48.51089 15.60541 15779 ft 338 kts 97°
2026-05-04 20:49 48.50884 15.64068 15541 ft 337 kts 97°
2026-05-04 20:49 48.50680 15.67586 15303 ft 336 kts 97°
2026-05-04 20:50 48.50474 15.71093 15065 ft 335 kts 97°
2026-05-04 20:50 48.50267 15.74589 14819 ft 334 kts 97°
2026-05-04 20:50 48.50061 15.78072 14586 ft 333 kts 97°
2026-05-04 20:50 48.49856 15.81541 14340 ft 332 kts 97°
2026-05-04 20:51 48.49651 15.85007 14107 ft 331 kts 97°
2026-05-04 20:51 48.49448 15.88455 13878 ft 330 kts 97°
2026-05-04 20:51 48.49246 15.91894 13629 ft 328 kts 97°
2026-05-04 20:51 48.49041 15.95318 13381 ft 327 kts 97°
2026-05-04 20:52 48.48834 15.98723 13144 ft 326 kts 97°
2026-05-04 20:52 48.48628 16.02113 12915 ft 324 kts 97°
2026-05-04 20:52 48.48254 16.05436 12685 ft 319 kts 110°
2026-05-04 20:52 48.47310 16.08424 12463 ft 314 kts 126°
2026-05-04 20:53 48.45878 16.10868 12224 ft 310 kts 142°
2026-05-04 20:53 48.44081 16.12614 12000 ft 306 kts 157°
2026-05-04 20:53 48.42133 16.13901 11766 ft 306 kts 158°
2026-05-04 20:53 48.40189 16.15180 11527 ft 304 kts 158°
2026-05-04 20:54 48.38256 16.16451 11323 ft 302 kts 158°
2026-05-04 20:54 48.36335 16.17714 11082 ft 301 kts 158°
2026-05-04 20:54 48.34419 16.18973 10864 ft 300 kts 158°
2026-05-04 20:54 48.32566 16.20392 10646 ft 301 kts 145°
2026-05-04 20:55 48.31163 16.22720 10414 ft 304 kts 121°
2026-05-04 20:55 48.30512 16.25743 10165 ft 308 kts 97°
2026-05-04 20:55 48.30742 16.28912 9960 ft 305 kts 76°
2026-05-04 20:55 48.31601 16.31791 9731 ft 303 kts 55°
2026-05-04 20:56 48.33140 16.33909 9438 ft 302 kts 28°
2026-05-04 20:56 48.35139 16.34750 9153 ft 299 kts 359°
2026-05-04 20:56 48.37172 16.34222 8874 ft 297 kts 343°
2026-05-04 20:56 48.39143 16.33376 8682 ft 289 kts 343°
2026-05-04 20:57 48.41038 16.32552 8521 ft 280 kts 343°
2026-05-04 20:57 48.42891 16.31744 8272 ft 275 kts 343°
2026-05-04 20:57 48.44717 16.30952 8143 ft 273 kts 343°
2026-05-04 20:57 48.46525 16.30212 7935 ft 273 kts 349°
2026-05-04 20:58 48.48394 16.30372 7695 ft 270 kts 20°
2026-05-04 20:58 48.49951 16.31854 7458 ft 265 kts 50°
2026-05-04 20:58 48.50828 16.34225 7209 ft 259 kts 76°
2026-05-04 20:58 48.51252 16.36857 6952 ft 256 kts 88°
2026-05-04 20:59 48.50963 16.39442 6715 ft 249 kts 118°
2026-05-04 20:59 48.49885 16.41423 6500 ft 246 kts 146°
2026-05-04 20:59 48.48326 16.42428 6295 ft 247 kts 165°
2026-05-04 20:59 48.46592 16.43088 6060 ft 260 kts 166°
2026-05-04 21:00 48.44877 16.43788 5865 ft 251 kts 164°
2026-05-04 21:00 48.43230 16.44496 5735 ft 239 kts 164°
2026-05-04 21:00 48.41669 16.45168 5637 ft 228 kts 164°
2026-05-04 21:00 48.40167 16.45812 5548 ft 223 kts 165°
2026-05-04 21:01 48.38678 16.46450 5445 ft 222 kts 164°
2026-05-04 21:01 48.37190 16.47087 5342 ft 222 kts 165°
2026-05-04 21:01 48.35701 16.47723 5242 ft 222 kts 164°
2026-05-04 21:01 48.34225 16.48354 5006 ft 219 kts 165°
2026-05-04 21:02 48.32761 16.48979 4741 ft 218 kts 165°
2026-05-04 21:02 48.31305 16.49600 4458 ft 217 kts 166°
2026-05-04 21:02 48.29878 16.50210 4172 ft 209 kts 166°
2026-05-04 21:02 48.28502 16.50797 3905 ft 202 kts 166°
2026-05-04 21:03 48.27176 16.51362 3632 ft 194 kts 168°
2026-05-04 21:03 48.25906 16.51904 3388 ft 185 kts 168°
2026-05-04 21:03 48.24702 16.52417 3169 ft 177 kts 168°
2026-05-04 21:03 48.23582 16.52894 2923 ft 158 kts 168°
2026-05-04 21:04 48.22570 16.53325 2729 ft 146 kts 168°
2026-05-04 21:04 48.21613 16.53731 2558 ft 139 kts 168°
2026-05-04 21:04 48.20696 16.54120 2383 ft 135 kts 169°
2026-05-04 21:04 48.19796 16.54501 2197 ft 134 kts 168°
2026-05-04 21:05 48.18904 16.54880 2024 ft 133 kts 168°
2026-05-04 21:05 48.18014 16.55257 1851 ft 132 kts 168°
2026-05-04 21:05 48.17133 16.55630 1683 ft 132 kts 167°
2026-05-04 21:05 48.16234 16.56004 1456 ft 134 kts 167°
2026-05-04 21:06 48.15332 16.56372 1244 ft 135 kts 167°
2026-05-04 21:06 48.14440 16.56766 1091 ft 132 kts 164°
2026-05-04 21:06 48.13557 16.57123 1005 ft 132 kts 161°
2026-05-04 21:06 48.12689 16.57508 748 ft 132 kts 161°
2026-05-04 21:07 48.11825 16.57876 654 ft 127 kts 163°
2026-05-04 21:07 48.10942 16.58216 684 ft 141 kts 164°
2026-05-04 21:07 48.09952 16.58575 1358 ft 147 kts 165°
2026-05-04 21:07 48.08975 16.58997 2066 ft 150 kts 167°
2026-05-04 21:08 48.07922 16.59561 2344 ft 173 kts 164°
2026-05-04 21:08 48.06724 16.60245 2608 ft 195 kts 163°
2026-05-04 21:08 48.05418 16.60984 3144 ft 204 kts 163°
2026-05-04 21:08 48.04083 16.61734 4015 ft 206 kts 163°
2026-05-04 21:09 48.02721 16.62496 4732 ft 213 kts 163°
2026-05-04 21:09 48.01324 16.63273 4940 ft 214 kts 165°
2026-05-04 21:09 47.99906 16.63936 4994 ft 213 kts 167°
2026-05-04 21:09 47.98479 16.64559 5008 ft 213 kts 167°
2026-05-04 21:10 47.97116 16.65450 5011 ft 219 kts 144°
2026-05-04 21:10 47.96240 16.67343 5011 ft 231 kts 111°
2026-05-04 21:10 47.96189 16.69761 5005 ft 241 kts 78°
2026-05-04 21:10 47.97006 16.71924 5006 ft 248 kts 45°
2026-05-04 21:11 47.98488 16.73210 5007 ft 249 kts 11°
2026-05-04 21:11 48.00214 16.73270 5012 ft 245 kts 348°
2026-05-04 21:11 48.01867 16.72811 5036 ft 242 kts 334°
2026-05-04 21:11 48.03295 16.71551 5083 ft 238 kts 317°
2026-05-04 21:12 48.04561 16.69981 5091 ft 236 kts 312°
2026-05-04 21:12 48.05741 16.68284 5109 ft 235 kts 308°
2026-05-04 21:12 48.06829 16.66479 5132 ft 233 kts 304°
2026-05-04 21:12 48.07991 16.64765 5043 ft 238 kts 321°
2026-05-04 21:13 48.09408 16.63466 5020 ft 240 kts 326°
2026-05-04 21:13 48.10876 16.62254 5008 ft 241 kts 328°
2026-05-04 21:13 48.12353 16.61058 5008 ft 241 kts 328°
2026-05-04 21:13 48.13332 16.60259 5013 ft 241 kts 327°
2026-05-04 21:14 48.14797 16.59049 5009 ft 241 kts 327°
2026-05-04 21:14 48.16736 16.57420 5009 ft 241 kts 327°
2026-05-04 21:14 48.17719 16.56584 5009 ft 241 kts 326°
2026-05-04 21:14 48.19174 16.55338 5009 ft 241 kts 326°
2026-05-04 21:15 48.20626 16.54092 4998 ft 241 kts 326°
2026-05-04 21:15 48.22079 16.52842 4997 ft 241 kts 326°
2026-05-04 21:15 48.23526 16.51591 4998 ft 240 kts 326°
2026-05-04 21:15 48.24975 16.50337 5008 ft 241 kts 326°
2026-05-04 21:16 48.26411 16.49095 5013 ft 241 kts 328°
2026-05-04 21:16 48.27857 16.47846 5009 ft 239 kts 328°
2026-05-04 21:16 48.29295 16.46604 5005 ft 238 kts 328°
2026-05-04 21:16 48.30727 16.45364 5001 ft 237 kts 328°
2026-05-04 21:17 48.32159 16.44121 5006 ft 237 kts 328°
2026-05-04 21:17 48.33586 16.42877 4997 ft 237 kts 328°
2026-05-04 21:17 48.35012 16.41633 4998 ft 238 kts 328°
2026-05-04 21:17 48.36504 16.40563 4995 ft 239 kts 349°
2026-05-04 21:18 48.38111 16.40865 4997 ft 235 kts 31°
2026-05-04 21:18 48.39188 16.42605 4994 ft 229 kts 72°
2026-05-04 21:18 48.39241 16.44919 5000 ft 222 kts 115°
2026-05-04 21:18 48.38278 16.46621 4995 ft 216 kts 156°
2026-05-04 21:19 48.36842 16.47287 5003 ft 218 kts 167°
2026-05-04 21:19 48.35373 16.47871 4996 ft 219 kts 166°
2026-05-04 21:19 48.33900 16.48491 4899 ft 220 kts 165°
2026-05-04 21:19 48.32429 16.49119 4665 ft 219 kts 165°
2026-05-04 21:20 48.30971 16.49742 4390 ft 217 kts 166°
2026-05-04 21:20 48.29522 16.50361 4112 ft 216 kts 166°
2026-05-04 21:20 48.28079 16.50976 3804 ft 215 kts 167°
2026-05-04 21:20 48.26652 16.51584 3530 ft 211 kts 168°
2026-05-04 21:21 48.25257 16.52179 3257 ft 206 kts 168°
2026-05-04 21:21 48.23942 16.52741 3001 ft 187 kts 167°
2026-05-04 21:21 48.22736 16.53253 2762 ft 179 kts 167°
2026-05-04 21:21 48.21594 16.53740 2555 ft 158 kts 168°
2026-05-04 21:22 48.20600 16.54163 2347 ft 144 kts 168°
2026-05-04 21:22 48.19651 16.54565 2188 ft 137 kts 168°
2026-05-04 21:22 48.18759 16.54942 1998 ft 134 kts 168°
2026-05-04 21:22 48.17867 16.55320 1823 ft 133 kts 167°
2026-05-04 21:23 48.16984 16.55694 1646 ft 131 kts 167°
2026-05-04 21:23 48.16094 16.56071 1468 ft 131 kts 166°
2026-05-04 21:23 48.15223 16.56441 1288 ft 133 kts 165°
2026-05-04 21:23 48.14321 16.56813 1093 ft 131 kts 164°
2026-05-04 21:24 48.13445 16.57175 983 ft 131 kts 162°
2026-05-04 21:24 48.12578 16.57556 694 ft 131 kts 161°
2026-05-04 21:24 48.11720 16.57905 639 ft 128 kts 164°
2026-05-04 21:24 48.10930 16.58231 612 ft 96 kts 161°
2026-05-04 21:25 48.10569 16.58409 613 ft 28 kts 163°
2026-05-04 21:25 48.10383 16.58465 615 ft 18 kts 191°
2026-05-04 21:25 48.10280 16.58454 615 ft 15 kts 192°
2026-05-04 21:25 48.10171 16.58413 611 ft 16 kts 195°
2026-05-04 21:26 48.10158 16.58315 616 ft 11 kts 325°
2026-05-04 21:26 48.10229 16.58278 615 ft 11 kts 342°
2026-05-04 21:26 48.10306 16.58247 614 ft 12 kts 345°
2026-05-04 21:26 48.10385 16.58213 623 ft 11 kts 345°
2026-05-04 21:27 48.10451 16.58186 618 ft 8 kts 345°
2026-05-04 21:27 48.10499 16.58167 624 ft 6 kts 345°
2026-05-04 21:27 48.10539 16.58150 615 ft 7 kts 342°
2026-05-04 21:27 48.10628 16.58110 611 ft 20 kts 344°
2026-05-04 21:28 48.10755 16.58055 621 ft 18 kts 343°
2026-05-04 21:28 48.10877 16.58003 616 ft 18 kts 342°
2026-05-04 21:28 48.10987 16.57958 620 ft 15 kts 345°
2026-05-04 21:28 48.11092 16.57914 616 ft 16 kts 344°
2026-05-04 21:29 48.11202 16.57866 616 ft 16 kts 345°
2026-05-04 21:29 48.11304 16.57824 616 ft 14 kts 344°
2026-05-04 21:29 48.11396 16.57785 623 ft 13 kts 344°
2026-05-04 21:29 48.11472 16.57748 618 ft 11 kts 332°
2026-05-04 21:30 48.11485 16.57654 623 ft 12 kts 240°
2026-05-04 21:30 48.11396 16.57644 612 ft 16 kts 163°
2026-05-04 21:30 48.11275 16.57684 615 ft 17 kts 187°
2026-05-04 21:30 48.11211 16.57559 614 ft 19 kts 279°
2026-05-04 21:31 48.11345 16.57353 616 ft 11 kts 25°
2026-05-04 21:31 48.11423 16.57375 619 ft 12 kts 326°
2026-05-04 21:31 48.11466 16.57266 616 ft 12 kts 297°
2026-05-04 21:32 48.11500 16.57161 611 ft 11 kts 296°
2026-05-04 21:32 48.11538 16.57046 619 ft 15 kts 296°
2026-05-04 21:32 48.11581 16.56914 613 ft 14 kts 295°
2026-05-04 21:32 48.11623 16.56785 619 ft 14 kts 296°
2026-05-04 21:33 48.11665 16.56658 617 ft 14 kts 295°
2026-05-04 21:33 48.11704 16.56534 617 ft 11 kts 300°
2026-05-04 21:33 48.11742 16.56545 603 ft 7 kts 23°
2026-05-04 21:33 48.11773 16.56567 602 ft 0 kts 25°